Glenwood, MN

3:57 PM CDT on August 20, 2017 (GMT -0500)
Glenwood Municipal

Weather History for KGHW - August, 2012

Change the Weather History Date:

Tuesday, August 14, 2012

  Actual Average Record
Temperature  
Mean Temperature 62 °F -  
Max Temperature 71 °F 80 °F 95 °F (1988)
Min Temperature 53 °F 57 °F 35 °F (2002)
Degree Days  
Heating Degree Days 3    
Growing Degree Days 12 (Base 50)    
Moisture  
Dew Point 53 °F    
Average Humidity 69    
Maximum Humidity 88    
Minimum Humidity 49    
Precipitation  
Precipitation 0.00 in - - ()
Sea Level Pressure  
Sea Level Pressure 29.96 in    
Wind  
Wind Speed 2 mph (SE)    
Max Wind Speed 7 mph    
Max Gust Speed -    
Visibility 10 miles    
Events Rain    
Averages and records for this station are not official NWS values.
T = Trace of Precipitation, MM = Missing Value Source: NWS Daily Summary

Daily Weather History Graph

Daily Weather History Graph

Search for Another Location

Airport or City:

Trip Planner

Search our weather history database for the weather conditions in past years. The results will help you decide how hot, cold, wet, or windy it might be!

Date:

Astronomy

Aug. 14, 2012 Rise Set
Actual Time 6:21 AM CDT 8:29 PM CDT
Civil Twilight 5:48 AM CDT 9:02 PM CDT
Nautical Twilight 5:08 AM CDT 9:42 PM CDT
Astronomical Twilight 4:23 AM CDT 10:26 PM CDT
Moon 3:14 AM CDT (8/14) 6:28 PM CDT (8/14)
Length of Visible Light 15h 13m
Length of Day
14h 08m
Waning Crescent, 9% of the Moon is Illuminated
Aug 14
Waning Crescent
Aug 17
New
Aug 24
First Quarter
Aug 31
Full
Sep 8
Last Quarter

Hourly Weather History & Observations

Time (CDT) Temp. Dew Point Humidity Pressure Visibility Wind Dir Wind Speed Gust Speed Precip Events Conditions
12:14 AM 60.8 °F 50.0 °F 68% 30.03 in 10.0 mi North 3.5 mph - N/A   Clear
12:53 AM 60.8 °F 50.0 °F 68% 30.03 in 10.0 mi North 3.5 mph - N/A   Clear
1:13 AM 57.2 °F 50.0 °F 77% 30.03 in 10.0 mi North 4.6 mph - N/A   Clear
1:54 AM 55.4 °F 48.2 °F 77% 30.03 in 10.0 mi Calm Calm - N/A   Clear
2:13 AM 57.2 °F 48.2 °F 72% 30.02 in 10.0 mi NNW 3.5 mph - N/A   Clear
2:54 AM 57.2 °F 48.2 °F 72% 30.02 in 10.0 mi Calm Calm - N/A   Clear
3:13 AM 57.2 °F 48.2 °F 72% 30.01 in 10.0 mi Calm Calm - N/A   Clear
3:33 AM 55.4 °F 48.2 °F 77% 30.01 in 10.0 mi Calm Calm - N/A   Clear
3:53 AM 55.4 °F 51.8 °F 88% 30.01 in 10.0 mi Calm Calm - N/A   Clear
4:13 AM 53.6 °F 48.2 °F 82% 30.01 in 10.0 mi Calm Calm - N/A   Clear
4:33 AM 55.4 °F 48.2 °F 77% 30.01 in 10.0 mi Calm Calm - N/A   Clear
5:13 AM 55.4 °F 51.8 °F 88% 30.01 in 10.0 mi Calm Calm - N/A   Clear
5:34 AM 55.4 °F 51.8 °F 88% 30.01 in 10.0 mi Calm Calm - N/A   Clear
5:53 AM 55.4 °F 51.8 °F 88% 30.00 in 10.0 mi Calm Calm - N/A   Clear
6:13 AM 53.6 °F 50.0 °F 88% 30.00 in 10.0 mi Calm Calm - N/A   Clear
6:34 AM 55.4 °F 50.0 °F 82% 30.01 in 10.0 mi Calm Calm - N/A   Clear
6:53 AM 55.4 °F 50.0 °F 82% 30.00 in 10.0 mi Calm Calm - N/A   Clear
7:13 AM 55.4 °F 50.0 °F 82% 30.01 in 10.0 mi Calm Calm - N/A   Clear
7:34 AM 57.2 °F 51.8 °F 82% 30.00 in 10.0 mi Calm Calm - N/A   Clear
7:53 AM 59.0 °F 53.6 °F 82% 30.00 in 10.0 mi Calm Calm - N/A   Clear
8:13 AM 60.8 °F 53.6 °F 77% 30.00 in 10.0 mi Calm Calm - N/A   Clear
8:34 AM 62.6 °F 55.4 °F 77% 30.00 in 10.0 mi SW 3.5 mph - N/A   Clear
8:53 AM 64.4 °F 55.4 °F 73% 29.99 in 10.0 mi Calm Calm - N/A   Clear
9:13 AM 66.2 °F 53.6 °F 64% 29.99 in 10.0 mi Calm Calm - N/A   Clear
9:34 AM 66.2 °F 53.6 °F 64% 29.99 in 10.0 mi South 3.5 mph - N/A   Clear
9:53 AM 66.2 °F 53.6 °F 64% 29.99 in 10.0 mi Calm Calm - N/A   Clear
10:13 AM 69.8 °F 53.6 °F 56% 29.99 in 10.0 mi Calm Calm - N/A   Clear
10:34 AM 69.8 °F 51.8 °F 53% 30.00 in 10.0 mi South 3.5 mph - N/A   Clear
10:53 AM 71.6 °F 51.8 °F 50% 30.00 in 10.0 mi South 4.6 mph - N/A   Clear
11:13 AM 69.8 °F 51.8 °F 53% 30.00 in 10.0 mi SSW 3.5 mph - N/A   Clear
11:34 AM 69.8 °F 51.8 °F 53% 29.99 in 10.0 mi South 4.6 mph - N/A   Clear
11:53 AM 69.8 °F 51.8 °F 53% 29.99 in 10.0 mi SSW 4.6 mph - N/A   Clear
12:13 PM 69.8 °F 50.0 °F 49% 29.99 in 10.0 mi South 3.5 mph - N/A   Scattered Clouds
12:33 PM 69.8 °F 53.6 °F 56% 29.98 in 10.0 mi Calm Calm - N/A   Scattered Clouds
12:53 PM 69.8 °F 51.8 °F 53% 29.98 in 10.0 mi Calm Calm - N/A   Scattered Clouds
1:13 PM 69.8 °F 53.6 °F 56% 29.98 in 10.0 mi South 4.6 mph - N/A Rain Light Rain
1:33 PM 69.8 °F 55.4 °F 60% 29.98 in 10.0 mi SW 4.6 mph - N/A Rain Light Rain
1:53 PM 68.0 °F 55.4 °F 64% 29.98 in 10.0 mi SSW 4.6 mph - N/A   Scattered Clouds
2:13 PM 68.0 °F 53.6 °F 60% 29.98 in 10.0 mi Calm Calm - N/A Rain Light Rain
2:33 PM 68.0 °F 55.4 °F 64% 29.97 in 10.0 mi Calm Calm - N/A Rain Light Rain
2:53 PM 69.8 °F 55.4 °F 60% 29.96 in 10.0 mi Calm Calm - N/A   Scattered Clouds
3:13 PM 68.0 °F 57.2 °F 68% 29.95 in 10.0 mi ENE 3.5 mph - N/A Rain Light Rain
3:33 PM 68.0 °F 57.2 °F 68% 29.95 in 10.0 mi East 3.5 mph - N/A   Mostly Cloudy
3:53 PM 68.0 °F 57.2 °F 68% 29.94 in 10.0 mi SE 4.6 mph - N/A   Scattered Clouds
4:14 PM 68.0 °F 57.2 °F 68% 29.94 in 10.0 mi ESE 3.5 mph - N/A   Mostly Cloudy
4:33 PM 68.0 °F 57.2 °F 68% 29.93 in 10.0 mi Calm Calm - N/A   Mostly Cloudy
4:53 PM 69.8 °F 53.6 °F 56% 29.94 in 10.0 mi SE 4.6 mph - N/A   Scattered Clouds
5:14 PM 69.8 °F 53.6 °F 56% 29.93 in 10.0 mi ESE 3.5 mph - N/A   Scattered Clouds
5:31 PM 69.8 °F 53.6 °F 56% 29.93 in 10.0 mi ESE 4.6 mph - N/A   Scattered Clouds
5:53 PM 68.0 °F 53.6 °F 60% 29.92 in 10.0 mi East 5.8 mph - N/A   Mostly Cloudy
6:14 PM 66.2 °F 53.6 °F 64% 29.91 in 10.0 mi ESE 3.5 mph - N/A   Mostly Cloudy
6:33 PM 66.2 °F 53.6 °F 64% 29.91 in 10.0 mi ESE 3.5 mph - N/A   Mostly Cloudy
6:53 PM 66.2 °F 55.4 °F 68% 29.90 in 10.0 mi ESE 4.6 mph - N/A   Mostly Cloudy
7:14 PM 66.2 °F 55.4 °F 68% 29.90 in 10.0 mi East 5.8 mph - N/A   Mostly Cloudy
7:33 PM 66.2 °F 53.6 °F 64% 29.89 in 10.0 mi ESE 6.9 mph - N/A   Overcast
7:53 PM 64.4 °F 53.6 °F 68% 29.89 in 10.0 mi East 4.6 mph - N/A   Overcast
8:13 PM 64.4 °F 53.6 °F 68% 29.88 in 10.0 mi ESE 5.8 mph - N/A   Mostly Cloudy
8:33 PM 64.4 °F 53.6 °F 68% 29.88 in 10.0 mi ESE 5.8 mph - N/A   Mostly Cloudy
8:53 PM 62.6 °F 53.6 °F 72% 29.89 in 10.0 mi SE 5.8 mph - N/A   Scattered Clouds
9:14 PM 62.6 °F 53.6 °F 72% 29.88 in 10.0 mi ESE 6.9 mph - N/A   Mostly Cloudy
9:33 PM 62.6 °F 53.6 °F 72% 29.88 in 10.0 mi SE 4.6 mph - N/A   Scattered Clouds
9:53 PM 60.8 °F 53.6 °F 77% 29.89 in 10.0 mi East 5.8 mph - N/A   Scattered Clouds
10:14 PM 60.8 °F 53.6 °F 77% 29.88 in 10.0 mi East 6.9 mph - N/A   Scattered Clouds
10:33 PM 60.8 °F 53.6 °F 77% 29.88 in 10.0 mi East 5.8 mph - N/A   Mostly Cloudy
10:53 PM 62.6 °F 53.6 °F 72% 29.87 in 10.0 mi East 6.9 mph - N/A   Mostly Cloudy
11:53 PM 60.8 °F 53.6 °F 77% 29.87 in 10.0 mi East 5.8 mph - N/A   Mostly Cloudy